[[{"header":{"parameterUnit":"m.s-1","parameterCategory":1,"la1":30.2991,"la2":30.254,"lo1":-89.0895,"lo2":-89.0444,"dy":0.0017,"dx":0.0017,"nx":28,"ny":28,"refTime":"2024-02-10T03:00:00:Z","depth":0,"parameterNumber":2,"parameterNumberName":"U-component_of_WINDS"},"data":[0,0,0,0,0,0,0,0,0,0,0,0,0,0,0,0,0,0,0,0,0,0,0,0,0,0,0,0,0,0,0,0,0,0,0,0,0,0,0,0,0,0,0,0,0,0,0,0,0,0,0,0,0,0,0,0,0,0,-0.0865,-0.0865,0,-0.0852,-0.0852,-0.0852,-0.0831,-0.083,-0.083,-0.083,-0.0816,-0.0816,-0.0816,0,0,0,0,0,0,0,0,0,0,0,0,0,-0.0871,-0.0871,-0.0865,-0.0865,-0.0865,-0.0852,-0.0852,-0.0852,-0.0831,-0.083,-0.083,-0.083,-0.0816,-0.0816,-0.0816,0,0,0,0,0,0,0,0,0,0,0,0,0,-0.0864,-0.0871,-0.0866,-0.0853,-0.0852,-0.0852,-0.0852,-0.0852,-0.0831,-0.083,-0.083,-0.0829,-0.0816,-0.0816,-0.0816,-0.0828,0,0,-0.0816,-0.0816,0,0,0,0,0,0,0,0,-0.0864,-0.0864,-0.0855,-0.0854,-0.0853,-0.0843,-0.0849,-0.0844,-0.0831,-0.0839,-0.083,-0.0829,-0.0826,-0.0825,-0.0824,-0.0827,-0.0827,-0.0816,-0.0816,-0.0816,-0.0816,0,0,0,0,0,0,0,-0.0865,-0.0864,-0.086,-0.0855,-0.0853,-0.0848,-0.0846,-0.0848,-0.0836,-0.0838,-0.0837,-0.0835,-0.0825,-0.0824,-0.0823,-0.0826,-0.0816,-0.0816,-0.0816,-0.0816,-0.0836,-0.0836,0,0,0,0,0,0,-0.0867,-0.0865,-0.0861,-0.086,-0.0857,-0.0848,-0.0846,-0.0846,-0.0836,-0.0833,-0.0836,-0.0834,-0.0824,-0.0823,-0.0823,-0.0833,-0.0816,-0.0816,-0.0816,-0.0835,-0.0836,-0.0836,0,0,0,0,0,0,-0.0868,-0.0867,-0.0861,-0.0862,-0.0861,-0.0848,-0.0849,-0.0846,-0.0845,-0.0834,-0.0831,-0.0837,-0.0823,-0.0823,-0.0826,-0.0833,-0.0816,-0.0816,-0.0835,-0.0835,-0.0836,-0.0856,0,0,0,0,0,0,-0.0868,-0.0867,-0.0872,-0.0862,-0.0861,-0.0866,-0.0849,-0.0847,-0.0845,-0.0843,-0.0834,-0.0832,-0.0823,-0.0826,-0.0826,-0.0832,-0.0816,-0.0834,-0.0835,-0.0836,-0.0855,-0.0858,-0.086,0,0,0,0,0,-0.0868,-0.0879,-0.0873,-0.0872,-0.0867,-0.0866,-0.0865,-0.0854,-0.0846,-0.085,-0.0842,-0.0833,-0.0832,-0.0827,-0.0826,-0.0833,-0.0834,-0.0835,-0.0836,-0.0854,-0.0857,-0.086,0,0,0,0,0,0,-0.0891,-0.0878,-0.087,-0.0879,-0.0874,-0.0863,-0.0868,-0.0858,-0.0856,-0.0854,-0.084,-0.0838,-0.0843,-0.0838,-0.0833,-0.0842,-0.0831,-0.0832,-0.0845,-0.0848,-0.085,-0.0851,-0.0816,0,0,0,0,0,-0.0897,-0.0898,-0.0886,-0.0895,-0.0892,-0.088,-0.088,-0.0871,-0.0866,-0.0864,-0.0856,-0.0851,-0.0849,-0.0848,-0.0846,-0.0854,-0.0851,-0.0858,-0.0861,-0.0863,-0.0864,-0.0865,-0.0868,-0.084,-0.084,-0.084,0,0,-0.091,-0.0902,-0.0904,-0.0899,-0.0894,-0.0894,-0.0879,-0.0881,-0.088,-0.0864,-0.0866,-0.086,-0.0853,-0.0858,-0.086,-0.0854,-0.087,-0.0864,-0.0866,-0.0866,-0.0867,-0.0869,-0.0871,-0.0841,-0.0841,-0.0841,0,0,-0.0932,-0.0928,-0.0933,-0.0928,-0.092,-0.0912,-0.0913,-0.0903,-0.0898,-0.09,-0.0887,-0.0886,-0.0884,-0.0879,-0.0876,-0.0893,-0.0883,-0.0893,-0.0906,-0.0908,-0.091,-0.0911,-0.0916,-0.0918,-0.0894,-0.0894,-0.0894,0,-0.0949,-0.0949,-0.0937,-0.0939,-0.0936,-0.092,-0.0924,-0.092,-0.0912,-0.091,-0.0904,-0.0899,-0.0894,-0.0896,-0.09,-0.0899,-0.0898,-0.0894,-0.091,-0.0912,-0.0914,-0.0918,-0.092,-0.0895,-0.0895,-0.0895,-0.0895,0,-0.0969,-0.0969,-0.0974,-0.0966,-0.0964,-0.0967,-0.0954,-0.0953,-0.0945,-0.0936,-0.0937,-0.0929,-0.0924,-0.0924,-0.0917,-0.0925,-0.0921,-0.0913,-0.0902,-0.0917,-0.0921,-0.0923,-0.0897,-0.0897,-0.0896,-0.0896,0,0,-0.1007,-0.099,-0.0992,-0.0987,-0.0976,-0.0976,-0.0977,-0.0972,-0.0971,-0.0965,-0.0965,-0.0962,-0.0954,-0.095,-0.0941,-0.0943,-0.0955,-0.0934,-0.0933,-0.0937,-0.0961,-0.0967,-0.0969,-0.0948,-0.0948,-0.0949,-0.0961,0,-0.1027,-0.1029,-0.1016,-0.1021,-0.102,-0.1003,-0.1004,-0.0997,-0.0989,-0.0986,-0.0977,-0.0975,-0.0965,-0.0962,-0.0963,-0.0953,-0.0959,-0.0952,-0.0947,-0.0947,-0.0948,-0.0971,-0.0978,-0.0991,-0.0963,-0.0963,-0.0963,0,-0.105,-0.1045,-0.1049,-0.1036,-0.1035,-0.1036,-0.1028,-0.1026,-0.1017,-0.1011,-0.1006,-0.0995,-0.0994,-0.0984,-0.0981,-0.0977,-0.0974,-0.0968,-0.0968,-0.0967,-0.0956,-0.0969,-0.0994,-0.0996,-0.0966,-0.0966,-0.0965,0,-0.1075,-0.1069,-0.107,-0.1067,-0.1052,-0.1052,-0.1046,-0.1036,-0.1033,-0.1026,-0.1024,-0.1017,-0.1014,-0.1008,-0.0996,-0.0989,-0.0994,-0.0983,-0.0988,-0.0988,-0.099,-0.099,-0.1013,-0.0989,-0.0989,-0.0989,-0.0989,0,-0.1098,-0.1101,-0.1081,-0.1082,-0.1084,-0.1069,-0.1071,-0.1063,-0.1054,-0.1052,-0.1038,-0.1036,-0.102,-0.1016,-0.1005,-0.1004,-0.1003,-0.0997,-0.0994,-0.0998,-0.0998,-0.0995,-0.0994,-0.0989,-0.0989,-0.0989,-0.0989,0,-0.1127,-0.1114,-0.1113,-0.1098,-0.1095,-0.1097,-0.1083,-0.1083,-0.1073,-0.107,-0.1069,-0.1054,-0.1048,-0.1034,-0.1026,-0.1019,-0.1019,-0.1015,-0.1022,-0.102,-0.1025,-0.1025,-0.1047,-0.1049,-0.1025,-0.1025,-0.1025,0,-0.1142,-0.1143,-0.1128,-0.1125,-0.1119,-0.1115,-0.1111,-0.1096,-0.1092,-0.108,-0.1081,-0.1074,-0.1067,-0.1059,-0.1047,-0.1039,-0.1034,-0.1042,-0.1032,-0.1035,-0.1032,-0.1032,-0.1031,-0.1044,-0.1044,-0.1045,-0.1045,0,-0.1169,-0.1161,-0.1156,-0.1148,-0.1144,-0.1137,-0.1129,-0.1127,-0.111,-0.1106,-0.11,-0.1095,-0.1085,-0.1078,-0.1068,-0.106,-0.1049,-0.1048,-0.1048,-0.1052,-0.1055,-0.1052,-0.1027,-0.1047,-0.1047,-0.1047,-0.1047,-0.1047,-0.119,-0.1189,-0.1178,-0.1172,-0.1164,-0.1157,-0.1154,-0.1144,-0.1138,-0.1129,-0.112,-0.1114,-0.1102,-0.1088,-0.1081,-0.1075,-0.107,-0.1071,-0.1071,-0.1071,-0.1072,-0.1057,-0.1074,-0.1074,-0.1073,-0.1073,-0.1073,0,-0.1215,-0.1206,-0.1201,-0.1189,-0.1184,-0.1174,-0.1164,-0.116,-0.1155,-0.1145,-0.1139,-0.113,-0.1122,-0.1109,-0.11,-0.1098,-0.1092,-0.1096,-0.1095,-0.1093,-0.1079,-0.1078,-0.11,-0.11,-0.11,-0.11,-0.11,-0.11,-0.1227,-0.1225,-0.1216,-0.121,-0.1201,-0.1195,-0.119,-0.1182,-0.1174,-0.1165,-0.1158,-0.1149,-0.1137,-0.1127,-0.1119,-0.1115,-0.1112,-0.1117,-0.1111,-0.1097,-0.1095,-0.1092,-0.1092,-0.1116,-0.1116,-0.1126,-0.1126,-0.1126]},{"header":{"parameterUnit":"m.s-1","parameterCategory":1,"la1":30.2991,"la2":30.254,"lo1":-89.0895,"lo2":-89.0444,"dy":0.0017,"dx":0.0017,"nx":28,"ny":28,"refTime":"2024-02-10T03:00:00:Z","depth":0,"parameterNumber":3,"parameterNumberName":"V-component_of_WINDS"},"data":[0,0,0,0,0,0,0,0,0,0,0,0,0,0,0,0,0,0,0,0,0,0,0,0,0,0,0,0,0,0,0,0,0,0,0,0,0,0,0,0,0,0,0,0,0,0,0,0,0,0,0,0,0,0,0,0,0,0,2.4142,2.4142,0,2.415,2.415,2.415,2.4171,2.4172,2.4172,2.4172,2.4177,2.4177,2.4177,0,0,0,0,0,0,0,0,0,0,0,0,0,2.4145,2.4145,2.4142,2.4142,2.4143,2.415,2.415,2.415,2.4171,2.4172,2.4172,2.4173,2.4177,2.4177,2.4177,0,0,0,0,0,0,0,0,0,0,0,0,0,2.4148,2.4145,2.4142,2.4154,2.4155,2.415,2.415,2.415,2.4171,2.4172,2.4172,2.4173,2.4177,2.4177,2.4177,2.416,0,0,2.4175,2.4175,0,0,0,0,0,0,0,0,2.4147,2.4147,2.4152,2.4153,2.4154,2.4161,2.4153,2.4154,2.4171,2.4165,2.4173,2.4173,2.4171,2.4171,2.4171,2.416,2.4161,2.4175,2.4175,2.4175,2.4175,0,0,0,0,0,0,0,2.4147,2.4147,2.4145,2.4152,2.4153,2.4159,2.416,2.4153,2.4164,2.4165,2.4167,2.4168,2.4172,2.4171,2.4171,2.4161,2.4175,2.4175,2.4175,2.4174,2.4142,2.4141,0,0,0,0,0,0,2.4146,2.4147,2.4145,2.4146,2.4153,2.4158,2.4159,2.4158,2.4164,2.4166,2.4167,2.4169,2.4172,2.4172,2.4171,2.4156,2.4175,2.4174,2.4174,2.4142,2.4142,2.4141,0,0,0,0,0,0,2.4146,2.4145,2.4145,2.4147,2.4147,2.4157,2.4155,2.4158,2.4157,2.4165,2.4167,2.4165,2.4172,2.4172,2.4164,2.4156,2.4174,2.4174,2.4143,2.4142,2.4141,2.4122,0,0,0,0,0,0,2.4146,2.4145,2.4139,2.4146,2.4147,2.4137,2.4155,2.4157,2.4157,2.4159,2.4164,2.4165,2.4173,2.4165,2.4164,2.4156,2.4173,2.4144,2.4143,2.4142,2.4123,2.412,2.4118,0,0,0,0,0,2.4146,2.4131,2.4138,2.4138,2.4139,2.4136,2.4137,2.4147,2.4156,2.415,2.4156,2.4165,2.4157,2.4164,2.4163,2.4154,2.4144,2.4143,2.4142,2.4124,2.4121,2.4118,0,0,0,0,0,0,2.4119,2.4132,2.414,2.4127,2.4131,2.414,2.4132,2.4142,2.4142,2.4144,2.4155,2.4156,2.4147,2.415,2.4157,2.4141,2.4153,2.4151,2.4139,2.4136,2.4134,2.4133,2.4173,0,0,0,0,0,2.4112,2.411,2.4121,2.4109,2.411,2.4121,2.412,2.4128,2.4132,2.4133,2.4138,2.4141,2.414,2.4138,2.4137,2.4124,2.4127,2.4118,2.4115,2.4113,2.4112,2.4109,2.4106,2.4137,2.4137,2.4137,0,0,2.4097,2.4104,2.4101,2.4104,2.4107,2.4105,2.4122,2.4117,2.4116,2.4132,2.4126,2.413,2.4134,2.4125,2.4121,2.4127,2.4104,2.4111,2.411,2.4109,2.4107,2.4104,2.4101,2.4136,2.4136,2.4136,0,0,2.4069,2.4073,2.4065,2.407,2.4076,2.4084,2.4083,2.4091,2.4096,2.409,2.4103,2.4102,2.4098,2.4101,2.4103,2.4081,2.409,2.4081,2.4066,2.4063,2.4061,2.4059,2.4053,2.4051,2.4079,2.4079,2.4079,0,2.4049,2.4046,2.4059,2.4056,2.4058,2.4075,2.4068,2.4071,2.4076,2.4078,2.4085,2.4084,2.4087,2.4081,2.4076,2.4076,2.4075,2.4079,2.406,2.4058,2.4056,2.4051,2.4049,2.4078,2.4078,2.4078,2.4078,0,2.4023,2.4021,2.4014,2.4022,2.4023,2.4017,2.4031,2.403,2.4039,2.4047,2.4043,2.4049,2.4051,2.405,2.4057,2.4046,2.4049,2.4058,2.407,2.4052,2.4048,2.4046,2.4076,2.4077,2.4077,2.4077,0,0,2.3974,2.3994,2.3991,2.3996,2.4007,2.4006,2.4002,2.4007,2.4007,2.4011,2.401,2.4009,2.4018,2.402,2.4028,2.4026,2.4012,2.4035,2.4035,2.4032,2.4002,2.3996,2.3993,2.4018,2.4018,2.4018,2.4002,0,2.395,2.3946,2.396,2.3952,2.3953,2.3971,2.3969,2.3975,2.3984,2.3985,2.3994,2.3994,2.4005,2.4007,2.4005,2.4014,2.4006,2.4015,2.4018,2.4018,2.4016,2.3991,2.3983,2.3968,2.4,2.4,2.4,0,2.3919,2.3925,2.3918,2.3933,2.3934,2.3931,2.3939,2.3939,2.3948,2.3955,2.3959,2.397,2.3969,2.3982,2.3981,2.3987,2.399,2.3994,2.3994,2.3995,2.4007,2.3992,2.3963,2.3961,2.3997,2.3997,2.3997,0,2.3887,2.3893,2.3891,2.3895,2.3912,2.391,2.3917,2.3927,2.393,2.3936,2.3939,2.3944,2.3947,2.3951,2.3964,2.3971,2.3964,2.3976,2.397,2.3969,2.3966,2.3966,2.3939,2.3967,2.3967,2.3967,2.3967,0,2.3858,2.3854,2.3878,2.3877,2.3873,2.3891,2.3887,2.3895,2.3905,2.3906,2.3922,2.3923,2.394,2.3943,2.3953,2.3953,2.3953,2.3959,2.3962,2.3958,2.3958,2.396,2.3961,2.3966,2.3966,2.3966,2.3967,0,2.3822,2.3838,2.3837,2.3855,2.386,2.3856,2.3872,2.3872,2.3883,2.3884,2.3886,2.3902,2.3907,2.3921,2.3928,2.3936,2.3933,2.3938,2.393,2.3932,2.3926,2.3927,2.3899,2.3897,2.3925,2.3925,2.3925,0,2.3802,2.38,2.3819,2.3822,2.3829,2.3833,2.3838,2.3855,2.3859,2.3872,2.3871,2.3878,2.3884,2.3891,2.3904,2.3911,2.3916,2.3907,2.3917,2.3915,2.3918,2.3918,2.3919,2.3904,2.3903,2.3903,2.3903,0,2.3767,2.3777,2.3783,2.3793,2.3798,2.3806,2.3815,2.3817,2.3837,2.3841,2.3847,2.3852,2.3862,2.3869,2.3879,2.3886,2.3898,2.39,2.3899,2.3895,2.3892,2.3895,2.3925,2.39,2.39,2.39,2.3901,2.3901,2.374,2.374,2.3755,2.3762,2.3772,2.3781,2.3783,2.3796,2.3802,2.3813,2.3823,2.3829,2.3842,2.3856,2.3863,2.3869,2.3875,2.3873,2.3873,2.3872,2.3871,2.3891,2.387,2.387,2.387,2.3871,2.3871,0,2.3707,2.3719,2.3725,2.3739,2.3746,2.3759,2.3771,2.3775,2.3781,2.3792,2.3799,2.3808,2.3816,2.3831,2.3841,2.3843,2.3849,2.3845,2.3845,2.3847,2.3864,2.3865,2.384,2.384,2.384,2.384,2.384,2.384,2.3691,2.3693,2.3705,2.3713,2.3724,2.3731,2.3738,2.3747,2.3756,2.3766,2.3774,2.3785,2.3798,2.3809,2.3818,2.3822,2.3826,2.382,2.3826,2.3842,2.3845,2.3848,2.3848,2.382,2.382,2.3808,2.3808,2.3808]}]]